Tracking 25405 objects as of 27-Jan-2022
HD Live streaming from Space Station
objects crossing your sky now

ORBCOMM FM 107

Track ORBCOMM FM 107 now!
10-day predictions
ORBCOMM FM 107 is classified as:


NORAD ID: 40087
Int'l Code: 2014-040B
Perigee: 715.6 km
Apogee: 717.7 km
Inclination: 47.0 °
Period: 99.0 minutes
Semi major axis: 7087 km
RCS: Unknown
Launch date: July 14, 2014
Source: United States (US)
Launch site: AIR FORCE EASTERN TEST RANGE (AFETR)
aabbcc
Your satellite tracking list
Your tracking list is empty




NASA's NSSDC Master Catalog

Two Line Element Set (TLE):
1 40087U 14040B   22026.52045043  .00000073  00000-0  55094-4 0  9990
2 40087  47.0066  83.8564 0001490  11.2414 348.8504 14.54960028400752
Source of the keplerian elements: AFSPC